Weather Service Report


801 
ASUS44 KFWD 011815
RWRTX 
NORTH TEXAS HOURLY WEATHER ROUNDUP
NATIONAL WEATHER SERVICE FORT WORTH TX
1200 PM CST SUN FEB 01 2015

NOTE: "FAIR" INDICATES FEW OR NO CLOUDS BELOW 12,000 FEET WITH NO
SIGNIFICANT WEATHER AND/OR OBSTRUCTIONS TO VISIBILITY.

TXZ118-119-011900-
DALLAS/FORT WORTH METROPLEX
  
CITY           SKY/WX    TMP DP  RH WIND       PRES   REMARKS
DFW AIRPORT    CLOUDY    53  44  71 N22       29.98R                  
6HR MIN TEMP:  52; 6HR MAX TEMP:  58;                                

DALLAS LOVE    CLOUDY    54  45  71 N18G28    29.98R                  
6HR MIN TEMP:  53; 6HR MAX TEMP:  59; 6HR PCP: TRACE;                

FTW MEACHAM    CLOUDY    52  42  69 NW17G24   30.01R                  
6HR MIN TEMP:  52; 6HR MAX TEMP:  57;                                

DAL-EXECUTIVE  CLOUDY    55  46  71 NW18G29   29.98R                  
6HR MIN TEMP:  55; 6HR MAX TEMP:  62; 6HR PCP:  0.02;                

FTW-ALLIANCE   CLOUDY    51  42  71 N21G29    30.00R                  
6HR MIN TEMP:  51; 6HR MAX TEMP:  56;                                

FTW-SPINKS     CLOUDY    54  46  76 NW22G29   30.02R                  
ARLINGTON      CLOUDY    54  45  71 NW15      29.99R                  
6HR MIN TEMP:  54; 6HR MAX TEMP:  60; 6HR PCP: TRACE;                

GRAND PRAIRIE  CLOUDY    54  46  76 NW10G21   30.01R                  
ADDISON        CLOUDY    52  45  76 NW17G28   29.99R                  
MESQUITE       CLOUDY    55  46  71 NW15      29.97R                  
LANCASTER      CLOUDY    55  47  73 NW16G24   29.98R                  
6HR MIN TEMP:  55; 6HR MAX TEMP:  60;                                

$$

TXZ091>094-102>105-117-120-121-131>134-011900-
NORTH CENTRAL TEXAS
  
CITY           SKY/WX    TMP DP  RH WIND       PRES   REMARKS
SHRMAN/DENISON MOSUNNY   50  42  75 N22       30.02R                  
6HR MIN TEMP:  46; 6HR MAX TEMP:  54; 6HR PCP:  0.03;                

GAINESVILLE    PTSUNNY   48  38  67 NW22      30.05R                  
6HR MIN TEMP:  46; 6HR MAX TEMP:  53; 6HR PCP:  0.01;                

BOWIE          PTSUNNY   47  37  68 NW21G28   30.05R WCI  39          
6HR MIN TEMP:  45; 6HR MAX TEMP:  52;                                

BRIDGEPORT     MOSUNNY   49  40  71 NW20G28   30.07R                  
6HR MIN TEMP:  47; 6HR MAX TEMP:  53; 6HR PCP:  0.01;                

DECATUR        MOSUNNY   49  37  61 NW22G30   30.04R                  
6HR MIN TEMP:  47; 6HR MAX TEMP:  53;                                

DENTON         PTSUNNY   49  39  68 NW20G28   30.02R                  
6HR MIN TEMP:  48; 6HR MAX TEMP:  54; 6HR PCP:  0.01;                

MCKINNEY       CLOUDY    51  42  71 NW22G30   29.99R                  
6HR MIN TEMP:  51; 6HR MAX TEMP:  59; 6HR PCP:  0.04;                

GREENVILLE     CLOUDY    52  45  76 NW16G23   29.96R                  
ROCKWALL       CLOUDY    53  48  81 N15G28    29.96R                  
6HR MIN TEMP:  53; 6HR MAX TEMP:  59; 6HR PCP:  0.02;                

TERRELL        CLOUDY    58  49  72 NW15G23   29.96R                  
6HR MIN TEMP:  58; 6HR MAX TEMP:  63; 6HR PCP:  0.39;                

WAXAHACHIE     CLOUDY    55  51  89 NW17      29.98R                  
6HR MIN TEMP:  55; 6HR MAX TEMP:  60;                                

CLEBURNE       CLOUDY    54  48  82 NW15G24   30.01R                  
GRANBURY       CLOUDY    53  45  72 NW16G26   30.03S                  
6HR MIN TEMP:  50; 6HR MAX TEMP:  58;                                

$$

TXZ083>090-098>101-113>116-127>130-139>142-154-155-011900-
WESTERN NORTH TEXAS
  
CITY           SKY/WX    TMP DP  RH WIND       PRES   REMARKS
WICHITA FALLS  PTSUNNY   44  33  65 NW22      30.10R WCI  35          
6HR MIN TEMP:  43; 6HR MAX TEMP:  48;                                

WF-KICKAPOO    CLOUDY    39  28  65 NW20G29   30.11R WCI  29          
6HR MIN TEMP:  39; 6HR MAX TEMP:  43;                                

VERNON         CLOUDY    42  28  58 N18G24    30.14R WCI  33          
6HR MIN TEMP:  42; 6HR MAX TEMP:  47;                                

ABILENE        CLOUDY    49  39  68 N25G31    30.09R                  
6HR MIN TEMP:  47; 6HR MAX TEMP:  52;                                

ABILENE-DYESS  CLOUDY    48  39  71 N22       30.09R                  
6HR MIN TEMP:  47; 6HR MAX TEMP:  52;                                

BRECKENRIDGE   CLOUDY    49  38  66 N18G25    30.08R                  
6HR MIN TEMP:  49; 6HR MAX TEMP:  55;                                

GRAHAM         MOSUNNY   49  38  65 N20G25    30.08R                  
6HR MIN TEMP:  46; 6HR MAX TEMP:  52;                                

MINERAL WELLS  CLOUDY    50  39  66 N23       30.04R                  
6HR MIN TEMP:  48; 6HR MAX TEMP:  53;                                

STEPHENVILLE   CLOUDY    51  44  76 N16G26    30.05R                  
6HR MIN TEMP:  51; 6HR MAX TEMP:  58;                                

COMANCHE       CLOUDY    52  47  82 N15G25    30.04R                  
6HR MIN TEMP:  51; 6HR MAX TEMP:  59;                                

BROWNWOOD      CLOUDY    52  46  82 N17G25    30.05R                  
COLEMAN        CLOUDY    53  46  78 N17G24    30.06R                  
6HR MIN TEMP:  49; 6HR MAX TEMP:  56; 6HR PCP:  0.01;                

BRADY          CLOUDY    57  50  77 NW17      30.02R                  
$$

TXZ143>147-156>162-174-175-011900-
CENTRAL TEXAS
  
CITY           SKY/WX    TMP DP  RH WIND       PRES   REMARKS
WACO           PTSUNNY   63  54  72 NW16      29.95R                  
6HR MIN TEMP:  56; 6HR MAX TEMP:  67; 6HR PCP: TRACE;                

WACO-TSTC      CLOUDY    64  54  68 SW14G21   29.95R                  
WACO-MCGREGOR  PTSUNNY   64  54  68 NW15G23   29.96S                  
6HR MIN TEMP:  59; 6HR MAX TEMP:  66;                                

HILLSBORO      CLOUDY    56  48  76 NW21      29.98R                  
6HR MIN TEMP:  56; 6HR MAX TEMP:  62;                                

CORSICANA      PTSUNNY   65  54  67 NW18      29.94S                  
6HR MIN TEMP:  60; 6HR MAX TEMP:  66; 6HR PCP:  0.09;                

MEXIA          PTSUNNY   67  56  68 NW18G24   29.92S                  
6HR MIN TEMP:  61; 6HR MAX TEMP:  68;                                

HEARNE         PTSUNNY   68  60  74 SW9       29.95S                  
6HR MIN TEMP:  60; 6HR MAX TEMP:  70;                                

CAMERON        CLOUDY    71  60  69 W12       29.93F                  
6HR MIN TEMP:  62; 6HR MAX TEMP:  71;                                

TEMPLE         MOSUNNY   66  54  63 NW17      29.94F                  
6HR MIN TEMP:  59; 6HR MAX TEMP:  66;                                

KILLEEN        PTSUNNY   64  54  68 NW15      29.96R                  
6HR MIN TEMP:  59; 6HR MAX TEMP:  65;                                

KILLEEN-SKYLRK MOSUNNY   64  52  63 NW14      29.93S                  
6HR MIN TEMP:  59; 6HR MAX TEMP:  64;                                

FORT HOOD      PTSUNNY   64  53  67 NW17      29.95S                  
6HR MIN TEMP:  58; 6HR MAX TEMP:  65;                                

GATESVILLE     CLOUDY    63  54  72 NW15      29.99S                  
HAMILTON       CLOUDY    60  52  76 NW16      30.00R                  
6HR MIN TEMP:  54; 6HR MAX TEMP:  62; 6HR PCP:  0.01;                

LAMPASAS       CLOUDY    61  54  78 NW9       29.98R                  
6HR MIN TEMP:  55; 6HR MAX TEMP:  62;                                

$$

TXZ095>097-106>112-122>126-135>138-148>153-164>167-011900-
EAST TEXAS
  
CITY           SKY/WX    TMP DP  RH WIND       PRES   REMARKS
PARIS          CLOUDY    52  43  71 NW17G24   29.94R                  
6HR MIN TEMP:  52; 6HR MAX TEMP:  57; 6HR PCP:  0.41;                

SULPHUR SPRNGS CLOUDY    55  49  82 NW17      29.95R                  
6HR MIN TEMP:  55; 6HR MAX TEMP:  60; 6HR PCP:  0.09;                

MOUNT PLEASANT CLOUDY    56  53  86 NW10      29.91R                  
6HR MIN TEMP:  56; 6HR MAX TEMP:  61; 6HR PCP:  0.45;                

GILMER         CLOUDY    58  55  91 W5        29.89S                  
6HR MIN TEMP:  56; 6HR MAX TEMP:  62; 6HR PCP:  0.08;                

MINEOLA        CLOUDY    57  54  88 NW14G21   29.93R                  
TYLER          CLOUDY    62  56  80 NW13      29.90R                  
6HR MIN TEMP:  60; 6HR MAX TEMP:  67; 6HR PCP:  0.15;                

LONGVIEW       LGT RAIN  57  54  89 NW10      29.88R FOG              
6HR MIN TEMP:  58; 6HR MAX TEMP:  68; 6HR PCP:  0.02;                

MARSHALL       PTSUNNY   61  56  85 N14G20    29.89R                  
6HR MIN TEMP:  58; 6HR MAX TEMP:  68; 6HR PCP:  0.08;                

ATHENS         PTSUNNY   61  55  82 NW9       29.91S                  
PALESTINE      RAIN      63  59  87 W16G23    29.93R                  
JACKSONVILLE   PTSUNNY   69  59  70 MISG      29.90S                  
HENDERSON      CLOUDY    68  59  74 W12G18    29.88F                  
6HR MIN TEMP:  58; 6HR MAX TEMP:  68;                                

NACOGDOCHES    CLOUDY    70  59  68 W10G22    29.89F                  
6HR MIN TEMP:  57; 6HR MAX TEMP:  70; 6HR PCP:  0.01;                

LUFKIN         CLOUDY    74  58  57 SW17G26   29.90S                  
6HR MIN TEMP:  63; 6HR MAX TEMP:  77;                                

$$

SUPPLEMENTAL OBSERVATIONS (CENTRAL)
  
CITY           SKY/WX    TMP DP  RH WIND       PRES   REMARKS
LAKE TEXOMA      N/A     46  37  71 NW25        N/A  WCI  38          
CADDO GRASSLND   N/A     52  43  71 NW12G22     N/A                   
PAT MAYSE LAKE   N/A     48  43  81 NW18        N/A                   
GREENVILLE       N/A     52  45  76 NW14G22     N/A                   
CEDAR HILL       N/A     54  46  76 N9G18       N/A                   
ATHENS           N/A     63  55  77 NW6G17      N/A                   
PALESTINE        N/A     66  55  68 NW9G18      N/A                   
LAKE LIMESTONE   N/A     68  54  60 W14         N/A                   
MCGREGOR         N/A     66  54  63 NW9         N/A                   

Return to Home page


Western Regional Climate Center, wrcc@dri.edu